Martinsburg, WV

1:21 AM EDT on October 22, 2017 (GMT -0400)
Eastern W Va Regional-Shepherd

Weather History for KMRB - March, 2012

Change the Weather History Date:

Saturday, March 17, 2012

  Actual Average Record
Temperature  
Mean Temperature 61 °F 42 °F  
Max Temperature 76 °F 53 °F 81 °F (1945)
Min Temperature 46 °F 32 °F 19 °F (1950)
Degree Days  
Heating Degree Days 4 23  
Month to date heating degree days 260 433  
Since 1 July heating degree days 3501 4389  
Cooling Degree Days 0 0  
Month to date cooling degree days 3 0  
Year to date cooling degree days 3 0  
Growing Degree Days 10 (Base 50)    
Moisture  
Dew Point 49 °F    
Average Humidity 73    
Maximum Humidity 100    
Minimum Humidity 46    
Precipitation  
Precipitation 0.00 in 0.12 in 0.88 in (1965)
Month to date precipitation 0.52 1.80  
Year to date precipitation 5.40 6.58  
Sea Level Pressure  
Sea Level Pressure 30.23 in    
Wind  
Wind Speed 3 mph (ESE)    
Max Wind Speed 10 mph    
Max Gust Speed 14 mph    
Visibility 4 miles    
Events Fog    
T = Trace of Precipitation, MM = Missing Value Source: NWS Daily Summary

Daily Weather History Graph

Daily Weather History Graph

Search for Another Location

Airport or City:

Trip Planner

Search our weather history database for the weather conditions in past years. The results will help you decide how hot, cold, wet, or windy it might be!

Date:

Astronomy

Mar. 17, 2012 Rise Set
Actual Time 7:19 AM EDT 7:21 PM EDT
Civil Twilight 6:52 AM EDT 7:48 PM EDT
Nautical Twilight 6:21 AM EDT 8:19 PM EDT
Astronomical Twilight 5:49 AM EDT 8:51 PM EDT
Moon 4:18 AM EDT (3/17) 2:44 PM EDT (3/17)
Length of Visible Light 12h 55m
Length of Day
12h 02m
Waning Crescent, 23% of the Moon is Illuminated
Mar 17
Waning Crescent
Mar 22
New
Mar 30
First Quarter
Apr 6
Full
Apr 13
Last Quarter

Hourly Weather History & Observations

Time (EDT) Temp. Dew Point Humidity Pressure Visibility Wind Dir Wind Speed Gust Speed Precip Events Conditions
12:53 AM 53.1 °F 51.1 °F 93% 30.19 in 7.0 mi Calm Calm - N/A   Clear
1:53 AM 52.0 °F 50.0 °F 93% 30.19 in 6.0 mi Calm Calm - N/A   Clear
2:13 AM 51.8 °F 50.0 °F 94% 30.19 in 1.5 mi Calm Calm - N/A   Clear
2:21 AM 51.8 °F 50.0 °F 94% 30.19 in 0.5 mi Calm Calm - N/A Fog Fog
2:37 AM 51.8 °F 48.2 °F 88% 30.19 in 0.2 mi Calm Calm - N/A Fog Fog
2:53 AM 50.0 °F 48.9 °F 96% 30.19 in 0.8 mi Calm Calm - N/A   Mist
2:55 AM 50.0 °F 48.2 °F 94% 30.19 in 1.2 mi Calm Calm - N/A   Scattered Clouds
2:58 AM 50.0 °F 48.2 °F 94% 30.19 in 4.0 mi Calm Calm - N/A   Partly Cloudy
3:01 AM 50.0 °F 48.2 °F 94% 30.19 in 1.2 mi Calm Calm - N/A   Partly Cloudy
3:06 AM 50.0 °F 48.2 °F 94% 30.19 in 0.2 mi Calm Calm - N/A Fog Fog
3:38 AM 48.2 °F 48.2 °F 100% 30.19 in 1.0 mi Calm Calm - N/A   Mist
3:41 AM 48.2 °F 48.2 °F 100% 30.19 in 2.0 mi Calm Calm - N/A   Scattered Clouds
3:50 AM 48.2 °F 46.4 °F 93% 30.19 in 1.5 mi Calm Calm - N/A   Partly Cloudy
3:53 AM 48.9 °F 46.9 °F 93% 30.19 in 2.0 mi Calm Calm - N/A   Partly Cloudy
4:00 AM 48.2 °F 46.4 °F 93% 30.19 in 5.0 mi Calm Calm - N/A   Partly Cloudy
4:09 AM 48.2 °F 46.4 °F 93% 30.19 in 1.8 mi Calm Calm - N/A   Scattered Clouds
4:26 AM 48.2 °F 48.2 °F 100% 30.19 in 0.5 mi Calm Calm - N/A Fog Fog
4:37 AM 48.2 °F 48.2 °F 100% 30.20 in 0.2 mi Calm Calm - N/A Fog Fog
4:53 AM 48.9 °F 46.9 °F 93% 30.20 in 0.5 mi Calm Calm - N/A Fog Fog
5:02 AM 48.2 °F 46.4 °F 93% 30.21 in 2.0 mi Calm Calm - N/A   Overcast
5:16 AM 48.2 °F 46.4 °F 93% 30.21 in 1.0 mi Calm Calm - N/A   Overcast
5:31 AM 48.2 °F 48.2 °F 100% 30.21 in 2.5 mi Calm Calm - N/A   Overcast
5:48 AM 48.2 °F 46.4 °F 93% 30.22 in 2.0 mi Calm Calm - N/A   Overcast
5:53 AM 48.0 °F 46.0 °F 93% 30.22 in 2.5 mi Calm Calm - N/A   Mostly Cloudy
6:01 AM 46.4 °F 46.4 °F 100% 30.22 in 4.0 mi Calm Calm - N/A   Mostly Cloudy
6:11 AM 48.2 °F 46.4 °F 93% 30.23 in 0.8 mi Calm Calm - N/A   Mist
6:23 AM 46.4 °F 46.4 °F 100% 30.23 in 0.2 mi Calm Calm - N/A Fog Fog
6:53 AM 46.9 °F 46.0 °F 97% 30.24 in 0.2 mi Calm Calm - N/A Fog Fog
7:20 AM 46.4 °F 46.4 °F 100% 30.25 in 0.8 mi Calm Calm - N/A   Mist
7:53 AM 46.9 °F 45.0 °F 93% 30.26 in 1.5 mi Calm Calm - N/A   Overcast
8:04 AM 46.4 °F 44.6 °F 93% 30.27 in 0.2 mi Calm Calm - N/A Fog Fog
8:21 AM 48.2 °F 48.2 °F 100% 30.27 in 0.5 mi Calm Calm - N/A Fog Fog
8:27 AM 48.2 °F 48.2 °F 100% 30.27 in 1.2 mi Calm Calm - N/A   Scattered Clouds
8:32 AM 48.2 °F 48.2 °F 100% 30.27 in 3.0 mi Calm Calm - N/A   Scattered Clouds
8:53 AM 51.1 °F 50.0 °F 96% 30.28 in 5.0 mi Calm Calm - N/A   Clear
9:53 AM 60.1 °F 53.1 °F 78% 30.29 in 5.0 mi NNE 4.6 mph - N/A   Haze
10:53 AM 64.9 °F 53.1 °F 65% 30.29 in 5.0 mi NE 3.5 mph - N/A   Haze
11:53 AM 69.1 °F 53.1 °F 57% 30.28 in 6.0 mi Variable 4.6 mph - N/A   Haze
12:53 PM 71.1 °F 54.0 °F 55% 30.27 in 7.0 mi Calm Calm - N/A   Clear
1:53 PM 73.0 °F 53.1 °F 49% 30.25 in 7.0 mi ESE 5.8 mph - N/A   Clear
2:53 PM 75.0 °F 54.0 °F 48% 30.23 in 8.0 mi SSE 9.2 mph - N/A   Clear
3:53 PM 73.9 °F 53.1 °F 48% 30.23 in 10.0 mi South 3.5 mph - N/A   Partly Cloudy
4:53 PM 73.9 °F 52.0 °F 46% 30.22 in 10.0 mi SE 9.2 mph - N/A   Scattered Clouds
5:53 PM 73.9 °F 53.1 °F 48% 30.21 in 10.0 mi ESE 8.1 mph - N/A   Clear
6:53 PM 72.0 °F 53.1 °F 51% 30.22 in 10.0 mi ESE 5.8 mph - N/A   Clear
7:53 PM 68.0 °F 52.0 °F 56% 30.23 in 10.0 mi East 3.5 mph - N/A   Clear
8:53 PM 66.0 °F 53.1 °F 63% 30.25 in 10.0 mi SE 3.5 mph - N/A   Clear
9:53 PM 64.9 °F 52.0 °F 63% 30.26 in 10.0 mi SE 5.8 mph - N/A   Clear
10:53 PM 62.1 °F 53.1 °F 72% 30.27 in 10.0 mi Calm Calm - N/A   Clear
11:53 PM 57.9 °F 52.0 °F 81% 30.28 in 9.0 mi Calm Calm - N/A   Clear